User: anonymous   Login
Location: Unspecified
(0.0000°N, 0.0000°E)
Time: 05:01:12
(UTC+00:00)
Language:

IGS OPTICAL 5 - Orbit

View from above orbital plane
View from above orbital plane
View from above satellite
View from above satellite

Ground track
Ground track

The orbit data is extracted from the following two-line orbital elements,

1 40538U 15015A   18271.84218675 0.00000000  00000-0  00000-0 0    05
2 40538  97.4940 345.5222 0003500 291.4147  68.5851 15.17622845    08
Epoch (UTC): 28 September 2018 20:12:44
Eccentricity: 0.0003500
inclination: 97.4940°
perigee height: 510 km
apogee height: 515 km
right ascension of ascending node: 345.5222°
argument of perigee: 291.4147°
revolutions per day: 15.17622845
mean anomaly at epoch: 68.5851°
orbit number at epoch: 0

The dashed part of the orbit path shows where the satellite is in the earth's shadow,  

DLR